Weather in Chernomorets

Bulgaria     42°26′38″N   27°38′12″E
temp.,
°C
wind,
m/s
gust,
m/s
humid.,
%
clouds,
%
prec.,
mm/h
press.,
hPa
HPBL,
m
14 may, fri
fri1400:00+16s238287 0.0 100748
03:00+15w5783100 0.0 1008198
06:00+14w348258 0.0 1009144
09:00+15w338098 0.0 1010143
12:00+15se128614 1.6 101186
15:00+16e338768 8.3 1011119
18:00+17ese338610 3.3 1011103
21:00+16nw348783 5.4 1012112
15 may, sat
sat1500:00+15w338782 0.0 1013107
03:00+15w4584100 0.0 1012162
06:00+14w4579100 0.0 1012161
09:00+15w227549 0.0 1013131
12:00+16ese227583 0.0 101277
15:00+17ese557611 0.1 1011166
18:00+17ese568096 0.0 1010124
21:00+17ese4581100 0.1 100976
16 may, sun
sun1600:00+16ese2282100 0.0 101033
03:00+16wsw0181100 0.0 100914
06:00+17nne2279100 0.0 100922
09:00+17n1179100 0.0 101016
12:00+17ne337694 0.0 101095
15:00+17e337115 0.0 100993
18:00+18e33714 0.0 100864
21:00+17e2272100 0.0 100911
17 may, mon
mon1700:00+17ssw3375100 0.0 100941
03:00+16w447769 0.0 1008104
06:00+15w57816 0.0 1009169
09:00+17w56815 0.0 1011156
12:00+19w44695 0.0 101155
15:00+21wsw23675 0.1 101054
18:00+20sse687589 0.4 1010136
21:00+18sse33815 0.4 101127
18 may, tue
tue1800:00+18wsw22825 0.0 101215
03:00+17w33825 0.0 101224
06:00+17wsw237826 0.0 101231
09:00+17wnw22775 0.0 101323
12:00+18ese33735 0.0 101293
15:00+19ese5677100 0.0 101072
18:00+20sse912742 0.0 1007116
21:00+19sse7117919 0.0 1006104